Location: McCloud Nature Park
(39.8272°N, 86.6824°W)
Time: 02:25:38
(UTC-06:00)

Amateur Radio Satellites - All Passes

Search period start: 23 January 2017 01:55
Search period end: 24 January 2017 01:55
Location: McCloud Nature Park, 39.8272°N, 86.6824°W

Satellite Date Start Highest point End Downlink Frequencies (MHz)
Time Altitude Azimuth
Cosmos 2504 23 Jan 01:59:41 02:06:56 68° 267° (W) 02:14:00 435.465 / 435.565
KKS-1 23 Jan 02:02:33 02:04:31 13° 63° (ENE) 02:06:30 437.445
Oscar 19 23 Jan 02:07:23 02:12:05 36° 291° (WNW) 02:16:44 437.125/150
BEESAT 23 Jan 02:10:28 02:15:03 49° 260° (W) 02:19:41 436.000
SWISSCUBE 23 Jan 02:12:33 02:17:02 41° 261° (W) 02:21:33 437.505
AUBIESAT-1 23 Jan 02:17:37 02:21:04 26° 65° (ENE) 02:24:21 437.475
CUSAT 1 23 Jan 02:24:45 02:29:59 70° 95° (E) 02:36:48 437.405
RS-15 23 Jan 02:30:06 02:39:23 24° 342° (NNW) 02:48:48 29.354- 29.394
YUBILEINY 23 Jan 02:33:27 02:40:13 26° 279° (W) 02:46:56 435.215
CUBESAT XI-V 23 Jan 02:36:23 02:38:56 15° 63° (ENE) 02:41:29 437.345
Gurwin Techsat 1B 23 Jan 02:44:28 02:49:09 32° 292° (WNW) 02:53:48 435.225
PHONESAT 2.4 23 Jan 02:45:14 02:47:27 72° 3° (N) 02:49:39 2401.200-2431.200
STARS 23 Jan 02:46:42 02:49:31 17° 65° (ENE) 02:52:21 437.465
ITAMSAT 1 23 Jan 02:56:02 03:01:15 69° 102° (ESE) 03:06:27 435.822/435.867
ISS 23 Jan 03:02:17 03:05:28 50° 33° (NNE) 03:08:37 145.825
M-CUBED/EXP-1 PRIME 23 Jan 03:16:55 03:21:09 51° 254° (WSW) 03:25:08 437.505
MOZHAYETS 4 23 Jan 03:18:13 03:22:18 32° 264° (W) 03:26:25
AIST 2 23 Jan 03:19:21 03:23:36 68° 58° (ENE) 03:27:48 435.215
ITUPSAT 1 23 Jan 03:19:37 03:20:37 11° 270° (W) 03:21:36 437.325
Cosmos 2491 23 Jan 03:23:25 03:30:09 24° 293° (WNW) 03:36:58 435.465 / 435.565
BRITE-PL 23 Jan 03:31:30 03:33:01 11° 87° (E) 03:34:30 437.365/2234.400
KKS-1 23 Jan 03:36:09 03:40:33 62° 258° (WSW) 03:44:58 437.445
DANDE 23 Jan 03:45:00 03:48:58 74° 281° (W) 03:54:24 436.750
AO-7 23 Jan 03:45:03 03:53:28 89° 109° (ESE) 04:01:49 29.400- 29.500
AUBIESAT-1 23 Jan 03:51:50 03:55:22 26° 258° (WSW) 03:58:45 437.475
CUSAT 1 23 Jan 04:08:59 04:12:55 18° 300° (WNW) 04:17:27 437.405
CUBESAT XI-V 23 Jan 04:11:08 04:15:46 60° 260° (W) 04:20:27 437.345
PHONESAT 2.4 23 Jan 04:19:08 04:21:13 36° 199° (SSW) 04:23:18 2401.200-2431.200
STARS 23 Jan 04:21:21 04:25:31 43° 261° (W) 04:29:42 437.465
ITAMSAT 1 23 Jan 04:37:09 04:40:07 15° 299° (WNW) 04:43:05 435.822/435.867
HORYU 2 23 Jan 04:37:43 04:41:25 25° 96° (E) 04:45:06 437.375
ISS 23 Jan 04:39:32 04:41:40 16° 229° (SW) 04:43:47 145.825
O/OREOS (USA 219) 23 Jan 04:44:36 04:48:26 28° 103° (ESE) 04:52:16 437.305
RS-15 23 Jan 04:48:37 04:58:03 24° 18° (NNE) 05:07:22 29.354- 29.394
GOMX 1 23 Jan 04:56:08 05:00:06 34° 97° (E) 05:03:54 467.674
AIST 2 23 Jan 05:00:19 05:01:29 11° 253° (WSW) 05:02:38 435.215
BRITE-PL 23 Jan 05:07:21 05:12:05 63° 286° (WNW) 05:16:26 437.365/2234.400
NOAA 15 23 Jan 05:10:39 05:14:46 22° 94° (E) 05:18:50 137.62
Cubesat XI-IV 23 Jan 05:12:25 05:16:32 22° 94° (E) 05:20:38 437.490
DOVE 4 23 Jan 05:20:10 05:23:28 23° 95° (E) 05:26:46 437.250
GONETS M04 23 Jan 05:23:22 05:31:12 34° 71° (ENE) 05:38:59
LilacSat-2 23 Jan 05:24:41 05:28:07 29° 97° (E) 05:31:32 437.200
STRAND 1 23 Jan 05:31:30 05:35:53 30° 67° (ENE) 05:40:18 437.568
AO-7 23 Jan 05:39:21 05:45:10 22° 308° (NW) 05:50:59 29.400- 29.500
NOAA 18 23 Jan 05:41:10 05:45:20 22° 94° (E) 05:49:28 137.9125
SO-50 23 Jan 05:42:41 05:45:55 19° 110° (ESE) 05:49:08 436.795
HO-68 23 Jan 06:01:58 06:05:52 15° 89° (E) 06:09:43 435.675
Cosmos 2499 23 Jan 06:03:42 06:10:48 69° 80° (E) 06:17:51 435.465 / 435.565
CUTE-I 23 Jan 06:07:15 06:12:36 74° 103° (ESE) 06:17:57 437.470
HORYU 2 23 Jan 06:14:04 06:17:55 29° 291° (WNW) 06:21:45 437.375
O/OREOS (USA 219) 23 Jan 06:24:01 06:27:46 26° 300° (WNW) 06:31:32 437.305
CINEMA 3 23 Jan 06:26:16 06:29:56 28° 97° (E) 06:33:41 145.822/145.860
GOMX 1 23 Jan 06:34:53 06:37:56 19° 294° (WNW) 06:40:54 467.674
NOAA 15 23 Jan 06:49:40 06:54:41 44° 290° (WNW) 06:59:41 137.62
Cubesat XI-IV 23 Jan 06:51:43 06:56:46 45° 290° (WNW) 07:01:50 437.490
CUTE 1.7 + AOD 2 23 Jan 06:53:40 06:57:31 31° 96° (E) 07:01:20 437.475
PCSat 23 Jan 06:55:35 06:56:01 10° 37° (NE) 06:56:28 145.827
DOVE 4 23 Jan 06:57:41 07:01:09 26° 291° (WNW) 07:04:37 437.250
LilacSat-2 23 Jan 06:59:26 07:02:11 19° 292° (WNW) 07:04:56 437.200
CUBEBUG 2 23 Jan 07:01:00 07:03:48 16° 93° (E) 07:06:38 437.445
RS-15 23 Jan 07:02:05 07:14:14 56° 49° (NE) 07:25:54 29.354- 29.394
STRAND 1 23 Jan 07:10:31 07:14:59 31° 264° (W) 07:19:29 437.568
GONETS M04 23 Jan 07:19:50 07:28:18 53° 270° (W) 07:36:46
NOAA 18 23 Jan 07:20:59 07:26:11 47° 290° (WNW) 07:31:23 137.9125
SO-50 23 Jan 07:21:26 07:26:01 50° 306° (NW) 07:30:34 436.795
UWE-3 23 Jan 07:22:40 07:25:42 18° 93° (E) 07:28:48 435.000/436.395/437.385
CANX-2 23 Jan 07:23:14 07:27:34 83° 103° (ESE) 07:31:51 2200.000
COMPASS 1 23 Jan 07:27:26 07:31:13 32° 97° (E) 07:34:58 437.405
SEEDS 23 Jan 07:27:48 07:31:58 51° 100° (E) 07:36:05 437.485
ZACube-1 23 Jan 07:34:50 07:37:18 14° 92° (E) 07:39:46 437.345
AAUSAT CUBESAT 2 23 Jan 07:35:32 07:39:14 30° 96° (E) 07:42:54 437.432
HO-68 23 Jan 07:47:12 07:54:25 89° 286° (WNW) 08:01:35 435.675
CUTE-I 23 Jan 07:49:07 07:52:00 15° 299° (WNW) 07:54:52 437.470
UNISAT 6 23 Jan 07:50:00 07:51:19 11° 63° (ENE) 07:52:38 437.425
Cosmos 2499 23 Jan 07:58:34 08:03:06 18° 279° (W) 08:07:37 435.465 / 435.565
TIGRISAT 23 Jan 08:01:20 08:03:34 14° 64° (ENE) 08:05:47 435.000
PRISM 23 Jan 08:01:33 08:05:35 51° 73° (ENE) 08:09:38 437.425
CINEMA 3 23 Jan 08:03:35 08:06:57 23° 291° (WNW) 08:10:23 145.822/145.860
Oscar 11 23 Jan 08:04:28 08:08:04 25° 95° (E) 08:11:38 145.826/435.025
ANTELSAT 23 Jan 08:16:13 08:19:28 22° 68° (ENE) 08:22:44 437.575/2403.000
DELFI C3 23 Jan 08:26:16 08:28:05 13° 91° (E) 08:29:52 145.870
CUTE 1.7 + AOD 2 23 Jan 08:29:52 08:33:09 22° 292° (WNW) 08:36:25 437.475
PCSat 23 Jan 08:35:21 08:40:42 54° 58° (ENE) 08:45:59 145.827
JAS-2 23 Jan 08:35:55 08:39:18 17° 58° (ENE) 08:42:53 435.910
CUBEBUG 2 23 Jan 08:36:25 08:40:34 43° 287° (WNW) 08:44:50 437.445
FUNcube-1 23 Jan 08:44:23 08:48:49 79° 103° (ESE) 08:53:19 145.935
HUMSAT D 23 Jan 08:53:25 08:56:04 16° 92° (E) 08:58:42 437.325/437.525
UWE-3 23 Jan 08:58:09 09:02:17 40° 288° (WNW) 09:06:30 435.000/436.395/437.385
COMPASS 1 23 Jan 09:03:26 09:06:32 20° 292° (WNW) 09:09:37 437.405
SEEDS 23 Jan 09:05:00 09:07:12 14° 295° (WNW) 09:09:22 437.485
ZACube-1 23 Jan 09:09:31 09:13:48 50° 286° (WNW) 09:18:08 437.345
AAUSAT CUBESAT 2 23 Jan 09:11:20 09:14:30 21° 292° (WNW) 09:17:40 437.432
RS-15 23 Jan 09:15:08 09:26:30 47° 252° (WSW) 09:37:26 29.354- 29.394
UNISAT 6 23 Jan 09:23:15 09:27:28 64° 259° (W) 09:31:43 437.425
TIGRISAT 23 Jan 09:35:43 09:39:49 49° 260° (W) 09:43:58 435.000
HO-68 23 Jan 09:36:45 09:41:09 18° 305° (NW) 09:45:32 435.675
PRISM 23 Jan 09:39:25 09:41:09 12° 268° (W) 09:42:53 437.425
Oscar 11 23 Jan 09:40:25 09:44:08 28° 291° (WNW) 09:47:51 145.826/435.025
ANTELSAT 23 Jan 09:52:15 09:56:00 30° 263° (W) 09:59:47 437.575/2403.000
DELFI C3 23 Jan 09:59:18 10:03:07 44° 287° (WNW) 10:06:53 145.870
QB50P1 23 Jan 10:11:06 10:14:58 37° 72° (ENE) 10:18:51 145.935-145.965
POLYITAN 1 23 Jan 10:16:13 10:20:10 43° 72° (ENE) 10:24:09 437.675
QB50P2 23 Jan 10:17:30 10:21:32 48° 73° (ENE) 10:25:36 145.880/145.840
JAS-2 23 Jan 10:18:15 10:23:35 69° 259° (WSW) 10:29:32 435.910
PCSat 23 Jan 10:19:45 10:23:38 20° 254° (WSW) 10:27:30 145.827
FUNcube-1 23 Jan 10:23:55 10:24:25 10° 298° (WNW) 10:24:55 145.935
HUMSAT D 23 Jan 10:27:47 10:31:50 42° 288° (WNW) 10:35:54 437.325/437.525
ESTCUBE 1 23 Jan 10:37:08 10:41:03 28° 96° (E) 10:44:57 437.505/2401.250
POPSAT HIP 1 23 Jan 10:38:00 10:42:11 77° 75° (ENE) 10:46:22 437.405
DUCHIFAT 1 23 Jan 10:44:39 10:48:48 79° 76° (ENE) 10:52:59 145.980
NANOSAT C BR1 23 Jan 10:51:57 10:56:07 77° 258° (WSW) 11:00:19 145.865
BY70-1 23 Jan 10:56:25 10:59:36 71° 284° (WNW) 11:02:32 436.1900
BUGSAT 1 23 Jan 11:06:06 11:09:58 46° 73° (ENE) 11:13:50 437.445
CUBEBUG 1 23 Jan 11:12:01 11:16:04 38° 98° (E) 11:20:05 437.445
CUSAT 1 23 Jan 11:20:36 11:22:29 11° 55° (NE) 11:24:20 437.405
AO-85 23 Jan 11:26:44 11:29:06 14° 110° (ESE) 11:31:24 145.980
Cosmos 2491 23 Jan 11:35:32 11:43:20 34° 71° (ENE) 11:51:04 435.465 / 435.565
AISAT 23 Jan 11:37:04 11:41:19 47° 100° (E) 11:45:32 437.250
Oscar 19 23 Jan 11:44:19 11:49:01 36° 69° (ENE) 11:53:45 437.125/150
YUBILEINY 23 Jan 11:44:26 11:48:17 14° 75° (ENE) 11:52:09 435.215
QB50P1 23 Jan 11:48:08 11:50:52 17° 267° (W) 11:53:35 145.935-145.965
POLYITAN 1 23 Jan 11:53:51 11:56:10 14° 268° (W) 11:58:31 437.675
QB50P2 23 Jan 11:55:36 11:57:36 13° 269° (W) 11:59:35 145.880/145.840
VELOX 1 23 Jan 12:10:10 12:14:34 78° 286° (WNW) 12:18:56 145.980
SPROUT 23 Jan 12:13:54 12:18:10 89° 102° (ESE) 12:22:26 437.525
ESTCUBE 1 23 Jan 12:13:59 12:17:45 26° 292° (WNW) 12:21:29 437.505/2401.250
UKube-1 23 Jan 12:23:37 12:27:48 48° 100° (E) 12:31:57 .
Gurwin Techsat 1B 23 Jan 12:24:46 12:29:49 46° 70° (ENE) 12:34:52 435.225
50 SAT 23 Jan 12:26:55 12:30:22 51° 286° (WNW) 12:33:48 437.505
DX 1 23 Jan 12:31:08 12:35:30 84° 102° (ESE) 12:39:49 434.975-435.025
AIST 1 23 Jan 12:33:03 12:36:46 28° 90° (E) 12:40:29
ITAMSAT 1 23 Jan 12:37:40 12:39:41 12° 59° (ENE) 12:41:44 435.822/435.867
DANDE 23 Jan 12:40:18 12:45:34 18° 63° (ENE) 12:50:57 436.750
BUGSAT 1 23 Jan 12:43:46 12:45:34 13° 268° (W) 12:47:22 437.445
Cosmos 2504 23 Jan 12:45:43 12:51:21 20° 81° (E) 12:56:46 435.465 / 435.565
CUBEBUG 1 23 Jan 12:49:06 12:52:02 18° 294° (WNW) 12:54:58 437.445
AO-7 23 Jan 12:52:44 12:59:13 26° 55° (NE) 13:05:42 29.400- 29.500
CUSAT 1 23 Jan 12:58:30 13:06:20 55° 75° (ENE) 13:13:17 437.405
AO-85 23 Jan 13:04:26 13:09:07 63° 303° (WNW) 13:13:29 145.980
AISAT 23 Jan 13:14:44 13:17:22 16° 296° (WNW) 13:20:01 437.250
Oscar 19 23 Jan 13:24:01 13:28:21 27° 265° (W) 13:32:45 437.125/150
TISAT 1 23 Jan 13:29:50 13:34:02 87° 100° (E) 13:38:13 437.305
Cosmos 2491 23 Jan 13:32:02 13:40:26 52° 270° (W) 13:48:52 435.465 / 435.565
YUBILEINY 23 Jan 13:34:42 13:43:30 78° 94° (E) 13:52:20 435.215
ITUPSAT 1 23 Jan 13:39:34 13:43:06 20° 94° (E) 13:46:38 437.325
BEESAT 3 23 Jan 13:56:37 13:58:23 13° 109° (ESE) 14:00:10 437.485
UKube-1 23 Jan 14:00:58 14:03:25 15° 296° (WNW) 14:05:51 .
Gurwin Techsat 1B 23 Jan 14:05:58 14:09:57 21° 267° (W) 14:13:57 435.225
AIST 1 23 Jan 14:10:53 14:14:20 22° 286° (WNW) 14:17:46
BEESAT 23 Jan 14:11:06 14:15:40 43° 99° (E) 14:20:13 436.000
SWISSCUBE 23 Jan 14:13:02 14:17:43 51° 100° (E) 14:22:23 437.505
ITAMSAT 1 23 Jan 14:13:14 14:18:24 85° 256° (WSW) 14:23:37 435.822/435.867
SO-50 23 Jan 14:14:07 14:16:57 16° 42° (NE) 14:19:45 436.795
DANDE 23 Jan 14:21:12 14:29:19 82° 81° (E) 14:37:37 436.750
Cosmos 2504 23 Jan 14:35:10 14:43:50 80° 277° (W) 14:51:59 435.465 / 435.565
BRITE-PL 23 Jan 14:39:41 14:43:23 18° 64° (ENE) 14:47:03 437.365/2234.400
CUSAT 1 23 Jan 14:41:08 14:47:45 30° 275° (W) 14:53:47 437.405
AO-7 23 Jan 14:42:49 14:51:10 75° 254° (WSW) 14:59:35 29.400- 29.500
BEESAT 2 23 Jan 14:47:39 14:50:35 20° 112° (ESE) 14:53:34 435.950
O/OREOS (USA 219) 23 Jan 14:54:34 14:58:57 49° 65° (ENE) 15:03:21 437.305
MOZHAYETS 4 23 Jan 15:13:11 15:17:49 61° 101° (E) 15:22:24
ITUPSAT 1 23 Jan 15:16:34 15:21:05 41° 289° (WNW) 15:25:35 437.325
KKS-1 23 Jan 15:28:10 15:31:51 25° 96° (E) 15:35:30 437.445
AUBIESAT-1 23 Jan 15:31:15 15:33:12 15° 99° (E) 15:35:08 437.475
BEESAT 3 23 Jan 15:31:46 15:35:32 49° 305° (NW) 15:39:23 437.485
YUBILEINY 23 Jan 15:34:42 15:41:14 23° 295° (WNW) 15:47:50 435.215
HORYU 2 23 Jan 15:35:17 15:38:39 22° 67° (ENE) 15:42:02 437.375
BEESAT 23 Jan 15:49:40 15:53:07 20° 295° (WNW) 15:56:34 436.000
CUTE-I 23 Jan 15:51:28 15:54:17 15° 60° (ENE) 15:57:07 437.470
SWISSCUBE 23 Jan 15:51:57 15:55:05 17° 296° (WNW) 15:58:12 437.505
SO-50 23 Jan 15:53:24 15:57:53 69° 241° (WSW) 16:02:19 436.795
GOMX 1 23 Jan 16:02:19 16:07:17 40° 72° (ENE) 16:12:01 467.674
DANDE 23 Jan 16:05:27 16:11:14 22° 277° (W) 16:17:08 436.750
LilacSat-2 23 Jan 16:07:13 16:09:10 14° 66° (ENE) 16:11:08 437.200
CUBESAT XI-V 23 Jan 16:08:34 16:12:52 35° 97° (E) 16:17:06 437.345
STARS 23 Jan 16:11:17 16:15:15 33° 98° (E) 16:19:12 437.465
BRITE-PL 23 Jan 16:15:38 16:21:18 67° 260° (W) 16:26:52 437.365/2234.400
DOVE 4 23 Jan 16:24:26 16:28:26 25° 69° (ENE) 16:32:14 437.250
BEESAT 2 23 Jan 16:24:34 16:28:09 33° 308° (NW) 16:31:48 435.950
NOAA 15 23 Jan 16:29:44 16:34:26 34° 68° (ENE) 16:39:11 137.62
M-CUBED/EXP-1 PRIME 23 Jan 16:30:57 16:34:12 56° 290° (WNW) 16:37:23 437.505
HO-68 23 Jan 16:32:36 16:35:07 12° 51° (NE) 16:37:38 435.675
Cubesat XI-IV 23 Jan 16:33:30 16:38:15 34° 68° (ENE) 16:43:01 437.490
Cosmos 2504 23 Jan 16:33:48 16:38:24 15° 297° (WNW) 16:42:53 435.465 / 435.565
O/OREOS (USA 219) 23 Jan 16:35:23 16:37:54 15° 261° (W) 16:40:24 437.305
AO-7 23 Jan 16:41:44 16:45:11 13° 272° (W) 16:48:39 29.400- 29.500
MOZHAYETS 4 23 Jan 16:52:04 16:54:26 14° 297° (WNW) 16:56:48
KKS-1 23 Jan 17:04:35 17:08:21 28° 291° (WNW) 17:12:07 437.445
AUBIESAT-1 23 Jan 17:04:54 17:07:42 25° 294° (WNW) 17:10:27 437.475
NOAA 18 23 Jan 17:06:23 17:11:27 40° 68° (ENE) 17:16:31 137.9125
HORYU 2 23 Jan 17:11:01 17:14:59 33° 262° (W) 17:18:59 437.375
AIST 2 23 Jan 17:17:26 17:20:01 16° 110° (ESE) 17:22:37 435.215
CINEMA 3 23 Jan 17:27:32 17:31:01 24° 69° (ENE) 17:34:25 145.822/145.860
CUTE-I 23 Jan 17:28:23 17:33:41 74° 257° (WSW) 17:39:00 437.470
LilacSat-2 23 Jan 17:39:33 17:43:06 39° 262° (W) 17:46:41 437.200
GOMX 1 23 Jan 17:41:06 17:45:24 24° 265° (W) 17:49:33 467.674
CUTE 1.7 + AOD 2 23 Jan 17:45:57 17:49:09 21° 68° (ENE) 17:52:21 437.475
CUBESAT XI-V 23 Jan 17:46:22 17:50:01 23° 293° (WNW) 17:53:38 437.345
STARS 23 Jan 17:48:04 17:51:23 21° 293° (WNW) 17:54:41 437.465
CUBEBUG 2 23 Jan 18:00:00 18:01:33 12° 64° (ENE) 18:03:06 437.445
DOVE 4 23 Jan 18:01:33 18:05:58 33° 263° (W) 18:10:12 437.250
NOAA 15 23 Jan 18:09:36 18:14:11 29° 264° (W) 18:18:49 137.62
Cubesat XI-IV 23 Jan 18:13:45 18:18:19 29° 264° (W) 18:22:53 437.490
HO-68 23 Jan 18:14:22 18:21:27 64° 70° (ENE) 18:28:33 435.675
CANX-2 23 Jan 18:14:52 18:18:59 51° 74° (ENE) 18:23:09 2200.000
COMPASS 1 23 Jan 18:17:44 18:20:51 20° 68° (ENE) 18:23:58 437.405
SEEDS 23 Jan 18:18:39 18:22:24 31° 71° (ENE) 18:26:10 437.485
UWE-3 23 Jan 18:20:26 18:22:13 13° 64° (ENE) 18:24:00 435.000/436.395/437.385
GONETS M04 23 Jan 18:23:39 18:31:28 39° 86° (E) 18:39:19
AAUSAT CUBESAT 2 23 Jan 18:25:25 18:28:22 19° 67° (ENE) 18:31:21 437.432
Cosmos 2499 23 Jan 18:38:12 18:46:23 60° 92° (E) 18:53:59 435.465 / 435.565
NOAA 18 23 Jan 18:47:38 18:52:10 26° 264° (W) 18:56:45 137.9125
AIST 2 23 Jan 18:54:09 18:58:06 44° 306° (NW) 19:02:07 435.215
Oscar 11 23 Jan 18:59:03 19:01:59 18° 66° (ENE) 19:04:57 145.826/435.025
CINEMA 3 23 Jan 19:04:18 19:08:03 27° 264° (W) 19:11:42 145.822/145.860
STRAND 1 23 Jan 19:20:50 19:26:01 87° 283° (WNW) 19:31:10 437.568
CUTE 1.7 + AOD 2 23 Jan 19:20:57 19:24:45 32° 263° (W) 19:28:37 437.475
CUBEBUG 2 23 Jan 19:33:36 19:37:40 56° 260° (W) 19:41:46 437.445
FUNcube-1 23 Jan 19:39:05 19:43:05 52° 74° (ENE) 19:47:09 145.935
ISS 23 Jan 19:42:08 19:44:43 22° 133° (SE) 19:47:19 145.825
HUMSAT D 23 Jan 19:46:27 19:46:43 10° 62° (ENE) 19:46:59 437.325/437.525
COMPASS 1 23 Jan 19:52:25 19:56:10 32° 263° (W) 19:59:58 437.405
CANX-2 23 Jan 19:53:10 19:55:07 13° 269° (W) 19:57:06 2200.000
UWE-3 23 Jan 19:54:10 19:58:12 53° 260° (W) 20:02:17 435.000/436.395/437.385
SEEDS 23 Jan 19:54:57 19:58:07 20° 266° (W) 20:01:19 437.485
AAUSAT CUBESAT 2 23 Jan 19:59:46 20:03:35 34° 263° (W) 20:07:25 437.432
HO-68 23 Jan 20:04:06 20:09:36 23° 267° (W) 20:15:09 435.675
ZACube-1 23 Jan 20:04:17 20:08:24 71° 259° (WSW) 20:12:34 437.345
GONETS M04 23 Jan 20:19:54 20:28:06 45° 286° (WNW) 20:36:25
Cosmos 2499 23 Jan 20:33:09 20:39:53 27° 289° (WNW) 20:46:17 435.465 / 435.565
Oscar 11 23 Jan 20:33:47 20:37:49 39° 262° (W) 20:41:53 145.826/435.025
DELFI C3 23 Jan 20:43:21 20:47:23 88° 67° (ENE) 20:51:25 145.870
STRAND 1 23 Jan 21:03:02 21:04:22 11° 301° (WNW) 21:05:42 437.568
BY70-1 23 Jan 21:10:12 21:12:14 16° 67° (ENE) 21:14:19 436.1900
UNISAT 6 23 Jan 21:15:34 21:19:23 27° 96° (E) 21:23:17 437.425
HUMSAT D 23 Jan 21:17:37 21:21:42 69° 259° (W) 21:25:52 437.325/437.525
ISS 23 Jan 21:17:58 21:21:02 39° 329° (NNW) 21:24:07 145.825
FUNcube-1 23 Jan 21:18:11 21:19:39 12° 270° (W) 21:21:08 145.935
PRISM 23 Jan 21:18:39 21:22:46 86° 284° (WNW) 21:26:50 437.425
RS-15 23 Jan 21:25:08 21:35:16 35° 104° (ESE) 21:45:45 29.354- 29.394
TIGRISAT 23 Jan 21:27:30 21:31:35 34° 97° (E) 21:35:44 435.000
JAS-2 23 Jan 21:27:40 21:33:07 21° 91° (E) 21:38:44 435.910
ESTCUBE 1 23 Jan 21:36:01 21:39:41 25° 68° (ENE) 21:43:23 437.505/2401.250
AO-85 23 Jan 21:36:36 21:40:31 85° 59° (ENE) 21:44:26 145.980
ANTELSAT 23 Jan 21:43:30 21:47:55 54° 100° (E) 21:52:24 437.575/2403.000
CUBEBUG 1 23 Jan 22:07:09 22:10:58 30° 70° (ENE) 22:14:49 437.445
POPSAT HIP 1 23 Jan 22:25:06 22:27:05 13° 92° (E) 22:29:03 437.405
DUCHIFAT 1 23 Jan 22:31:02 22:33:00 13° 92° (E) 22:34:56 145.980
AISAT 23 Jan 22:33:26 22:37:32 38° 71° (ENE) 22:41:39 437.250
NANOSAT C BR1 23 Jan 22:37:53 22:40:44 17° 93° (E) 22:43:34 145.865
BY70-1 23 Jan 22:39:47 22:42:15 22° 265° (W) 22:44:51 436.1900
UNISAT 6 23 Jan 22:52:14 22:56:01 27° 291° (WNW) 22:59:52 437.425
ISS 23 Jan 22:56:41 22:58:13 13° 348° (NNW) 22:59:44 145.825
50 SAT 23 Jan 23:00:18 23:03:46 49° 74° (ENE) 23:07:15 437.505
TIGRISAT 23 Jan 23:04:37 23:08:04 22° 292° (WNW) 23:11:35 435.000
VELOX 1 23 Jan 23:06:11 23:10:38 84° 73° (ENE) 23:15:05 145.980
SPROUT 23 Jan 23:06:11 23:10:22 59° 74° (ENE) 23:14:33 437.525
BEESAT 2 23 Jan 23:06:16 23:08:14 13° 42° (NE) 23:10:12 435.950
JAS-2 23 Jan 23:11:13 23:18:35 77° 286° (WNW) 23:26:25 435.910
ESTCUBE 1 23 Jan 23:12:20 23:16:20 30° 263° (W) 23:20:22 437.505/2401.250
PCSat 23 Jan 23:16:00 23:21:17 58° 114° (ESE) 23:26:36 145.827
UKube-1 23 Jan 23:17:13 23:21:10 37° 71° (ENE) 23:25:10 .
ANTELSAT 23 Jan 23:21:41 23:24:11 15° 295° (WNW) 23:26:42 437.575/2403.000
DX 1 23 Jan 23:25:30 23:29:48 65° 75° (ENE) 23:34:09 434.975-435.025
PHONESAT 2.4 23 Jan 23:27:44 23:29:29 20° 155° (SSE) 23:31:13 2401.200-2431.200
QB50P1 23 Jan 23:31:35 23:35:49 80° 102° (ESE) 23:40:03 145.935-145.965
RS-15 23 Jan 23:35:02 23:46:52 69° 306° (NW) 23:59:15 29.354- 29.394
POLYITAN 1 23 Jan 23:37:00 23:41:15 87° 291° (WNW) 23:45:30 437.675
QB50P2 23 Jan 23:38:24 23:42:39 79° 284° (WNW) 23:46:54 145.880/145.840
CUBEBUG 1 23 Jan 23:43:43 23:47:14 23° 265° (W) 23:50:46 437.445
YUBILEINY 23 Jan 23:46:19 23:54:19 37° 72° (ENE) 00:02:13 435.215
BEESAT 3 23 Jan 23:49:05 23:53:05 70° 56° (ENE) 23:57:03 437.485
Oscar 19 23 Jan 23:58:24 00:00:36 13° 90° (E) 00:02:47 437.125/150
POPSAT HIP 1 23 Jan 23:59:02 00:03:07 50° 287° (WNW) 00:07:13 437.405
DUCHIFAT 1 24 Jan 00:04:52 00:08:56 49° 287° (WNW) 00:13:00 145.980
AISAT 24 Jan 00:10:59 00:14:07 19° 266° (W) 00:17:15 437.250
NANOSAT C BR1 24 Jan 00:12:40 00:16:34 37° 288° (WNW) 00:20:26 145.865
AIST 1 24 Jan 00:17:25 00:21:42 80° 84° (E) 00:25:56
TISAT 1 24 Jan 00:20:19 00:24:24 56° 74° (ENE) 00:28:29 437.305
BUGSAT 1 24 Jan 00:23:20 00:27:25 88° 272° (W) 00:31:30 437.445
Cosmos 2504 24 Jan 00:29:43 00:36:11 33° 72° (ENE) 00:42:28 435.465 / 435.565
ISS 24 Jan 00:34:39 00:35:50 11° 9° (N) 00:37:01 145.825
Cosmos 2491 24 Jan 00:35:58 00:43:47 39° 86° (E) 00:51:37 435.465 / 435.565
BEESAT 2 24 Jan 00:42:27 00:46:30 73° 242° (WSW) 00:50:30 435.950
Gurwin Techsat 1B 24 Jan 00:42:32 00:46:17 19° 93° (E) 00:50:00 435.225
SPROUT 24 Jan 00:45:33 00:46:38 11° 270° (W) 00:47:44 437.525
ITUPSAT 1 24 Jan 00:45:41 00:49:21 22° 66° (ENE) 00:53:01 437.325
UKube-1 24 Jan 00:54:20 00:57:19 18° 266° (W) 01:00:20 .
JAS-2 24 Jan 00:58:30 01:02:33 16° 303° (WNW) 01:06:46 435.910
PHONESAT 2.4 24 Jan 01:00:51 01:03:04 89° 115° (ESE) 01:05:17 2401.200-2431.200
PCSat 24 Jan 01:00:52 01:05:03 22° 312° (NW) 01:09:15 145.827
DX 1 24 Jan 01:05:28 01:06:24 11° 269° (W) 01:07:19 434.975-435.025
BEESAT 24 Jan 01:16:35 01:21:06 46° 71° (ENE) 01:25:40 436.000
SWISSCUBE 24 Jan 01:18:32 01:23:09 54° 72° (ENE) 01:27:49 437.505
Oscar 19 24 Jan 01:35:16 01:40:25 72° 287° (WNW) 01:45:32 437.125/150
AIST 2 24 Jan 01:39:13 01:40:59 12° 41° (NE) 01:42:45 435.215
M-CUBED/EXP-1 PRIME 24 Jan 01:43:34 01:45:33 13° 61° (ENE) 01:47:29 437.505
